FW3841 Weather Reports


Display with metric or nautical units.
time (UTC)temp
F
wind
direction
speed
MPH
gust
MPH
rain 1hr
in
rain 24hr
in
rain mn
in
humidity
%
barometer
mb
20260505004042 75 0 1.0 5.0 0.00 0.00 0.00 59 1013.1
20260505003540 75 202 2.0 5.0 0.00 0.00 0.00 58 1013.0
20260505003055 76 138 0.0 5.0 0.00 0.00 0.00 57 1013.0
20260505002540 76 167 1.0 5.0 0.00 0.00 0.00 56 1013.0
20260505002040 76 0 0.0 7.0 0.00 0.00 0.00 55 1013.0
20260505001552 76 232 1.0 7.0 0.00 0.00 0.00 57 1013.0
20260505001043 76 98 1.0 3.0 0.00 0.00 0.00 56 1012.9
20260505000540 76 153 1.0 3.0 0.00 0.00 0.00 57 1012.9
20260505000050 76 0 0.0 3.0 0.00 0.00 0.00 59 1012.9
20260504235541 76 136 0.0 4.0 0.00 0.00 0.00 58 1012.9
20260504235045 75 168 1.0 7.0 0.00 0.00 0.00 58 1012.9
20260504234551 75 117 1.0 7.0 0.00 0.00 0.00 58 1012.8
20260504234040 75 0 1.0 7.0 0.00 0.00 0.00 57 1012.9
20260504233540 75 86 1.0 4.0 0.00 0.00 0.00 58 1012.9
20260504233057 75 350 1.0 9.0 0.00 0.00 0.00 58 1012.8
20260504232541 75 132 2.0 9.0 0.00 0.00 0.00 56 1012.8
20260504232040 76 228 2.0 8.0 0.00 0.00 0.00 57 1012.8
20260504231548 76 321 1.0 6.0 0.00 0.00 0.00 57 1012.8
20260504231040 76 114 1.0 9.0 0.00 0.00 0.00 59 1012.9
20260504230542 76 196 2.0 9.0 0.00 0.00 0.00 57 1012.8
20260504230054 76 107 2.0 6.0 0.00 0.00 0.00 56 1012.8
20260504225540 76 90 1.0 5.0 0.00 0.00 0.00 59 1012.9
20260504225042 76 142 2.0 8.0 0.00 0.00 0.00 58 1012.9
20260504224558 76 0 2.0 8.0 0.00 0.00 0.00 56 1013.0
20260504224040 77 5 1.0 4.0 0.00 0.00 0.00 57 1012.9
20260504223546 77 287 1.0 6.0 0.00 0.00 0.00 56 1012.9
20260504223101 77 355 2.0 8.0 0.00 0.00 0.00 52 1013.0
20260504222540 77 117 2.0 8.0 0.00 0.00 0.00 54 1013.0
20260504222040 77 309 0.0 8.0 0.00 0.00 0.00 54 1013.2
20260504221603 77 312 1.0 8.0 0.00 0.00 0.00 57 1013.1
20260504221040 76 147 2.0 5.0 0.00 0.00 0.00 57 1013.1
20260504220540 77 35 0.0 5.0 0.00 0.00 0.00 58 1013.1
20260504220052 77 106 1.0 5.0 0.00 0.00 0.00 57 1013.2
20260504215540 77 131 1.0 6.0 0.00 0.00 0.00 55 1013.1
20260504215040 77 199 2.0 6.0 0.00 0.00 0.00 56 1013.2
20260504214600 77 134 1.0 6.0 0.00 0.00 0.00 58 1013.2
20260504214041 77 146 0.0 6.0 0.00 0.00 0.00 60 1013.3
20260504213540 76 155 1.0 4.0 0.00 0.00 0.00 59 1013.4
20260504213103 76 225 1.0 6.0 0.00 0.00 0.00 58 1013.5
20260504212540 76 0 1.0 7.0 0.00 0.00 0.00 57 1013.5
20260504212042 76 290 3.0 7.0 0.00 0.00 0.00 57 1013.6
20260504211552 76 128 1.0 6.0 0.00 0.00 0.00 55 1013.7
20260504211039 76 33 1.0 6.0 0.00 0.00 0.00 57 1013.8
20260504210540 75 296 1.0 4.0 0.00 0.00 0.00 55 1013.8
20260504210053 75 167 1.0 6.0 0.00 0.00 0.00 57 1013.9
20260504205542 75 171 2.0 6.0 0.00 0.00 0.00 55 1013.9
20260504205040 74 194 1.0 5.0 0.00 0.00 0.00 59 1014.0
20260504204553 74 180 1.0 5.0 0.00 0.00 0.00 58 1014.0
20260504204040 73 175 1.0 5.0 0.00 0.00 0.00 56 1014.1
20260504203540 73 153 1.0 8.0 0.00 0.00 0.00 57 1014.1
20260504203054 73 0 2.0 8.0 0.00 0.00 0.00 56 1014.1
20260504202540 73 19 1.0 6.0 0.00 0.00 0.00 57 1014.1
20260504202039 73 26 0.0 5.0 0.00 0.00 0.00 61 1014.1
20260504201549 73 351 1.0 5.0 0.00 0.00 0.00 57 1014.2
20260504201043 73 121 2.0 5.0 0.00 0.00 0.00 59 1014.3
20260504200540 73 48 1.0 4.0 0.00 0.00 0.00 62 1014.3
20260504200054 72 146 1.0 6.0 0.00 0.00 0.00 65 1014.4
20260504195539 71 163 2.0 6.0 0.00 0.00 0.00 65 1014.4
20260504195039 71 211 1.0 6.0 0.00 0.00 0.00 67 1014.5
20260504194557 70 194 2.0 6.0 0.00 0.00 0.00 68 1014.6
20260504194040 70 0 1.0 4.0 0.00 0.00 0.00 66 1014.5
20260504193544 69 106 1.0 5.0 0.00 0.00 0.00 64 1014.6
20260504193100 69 106 2.0 5.0 0.00 0.00 0.00 65 1014.6
20260504192540 70 0 1.0 4.0 0.00 0.00 0.00 67 1014.8
20260504192044 69 79 1.0 4.0 0.00 0.00 0.00 68 1014.9
20260504191601 68 5 1.0 4.0 0.00 0.00 0.00 66 1014.9
20260504191040 68 355 1.0 5.0 0.00 0.00 0.00 69 1014.8
20260504190541 68 227 1.0 6.0 0.00 0.00 0.00 70 1015.0
20260504190053 68 325 2.0 6.0 0.00 0.00 0.00 68 1014.9
20260504185540 68 42 2.0 6.0 0.00 0.00 0.00 69 1014.9
20260504185042 68 200 1.0 4.0 0.00 0.00 0.00 70 1014.9
20260504184555 67 89 2.0 4.0 0.00 0.00 0.00 68 1015.0
20260504184043 68 105 2.0 4.0 0.00 0.00 0.00 68 1015.1
20260504183540 68 343 1.0 4.0 0.00 0.00 0.00 71 1015.0
20260504183050 67 0 1.0 4.0 0.00 0.00 0.00 73 1015.0
20260504182542 67 144 1.0 3.0 0.00 0.00 0.00 73 1015.0
20260504182040 67 133 1.0 3.0 0.00 0.00 0.00 72 1015.1
20260504181556 66 138 0.0 3.0 0.00 0.00 0.00 76 1015.1
20260504181040 65 229 1.0 4.0 0.00 0.00 0.00 77 1015.2
20260504180540 64 0 1.0 4.0 0.00 0.00 0.00 77 1015.2
20260504180103 63 270 1.0 5.0 0.00 0.00 0.00 77 1015.2
20260504175540 63 280 2.0 5.0 0.00 0.00 0.00 76 1015.2
20260504175041 62 96 1.0 5.0 0.00 0.00 0.00 80 1015.2
20260504174555 62 24 3.0 5.0 0.00 0.00 0.00 77 1015.2
20260504174041 62 5 2.0 5.0 0.00 0.00 0.00 79 1015.1
20260504173540 62 15 1.0 4.0 0.00 0.00 0.00 78 1015.2
20260504173101 62 5 1.0 3.0 0.00 0.00 0.00 78 1015.2
20260504172540 62 108 1.0 4.0 0.00 0.00 0.00 79 1015.2
20260504172040 61 0 1.0 4.0 0.00 0.00 0.00 81 1015.2
20260504171600 61 158 1.0 3.0 0.00 0.00 0.00 82 1015.2
20260504171041 60 103 1.0 5.0 0.00 0.00 0.00 82 1015.3
20260504170544 60 322 2.0 5.0 0.00 0.00 0.00 82 1015.3
20260504160115 55 0 0.0 2.0 0.00 0.00 0.00 88 1015.3
20260504151040 53 0 0.0 4.0 0.00 0.00 0.00 91 1015.1
20260504150540 53 19 0.0 3.0 0.00 0.00 0.00 91 1015.0
20260504150111 52 77 0.0 3.0 0.00 0.00 0.00 91 1014.9
20260504141041 51 0 0.0 2.0 0.00 0.00 0.00 94 1014.5
20260504140539 51 91 0.0 2.0 0.00 0.00 0.00 94 1014.5
20260504130542 48 0 0.0 0.0 0.00 0.00 0.00 93 1013.9
20260504110542 47 0 0.0 0.0 0.00 0.00 0.00 92 1012.4
20260504100540 48 0 0.0 1.0 0.00 0.00 0.00 92 1012.2
20260504081554 51 0 0.0 0.0 0.00 0.00 0.00 90 1011.9
20260504081039 51 0 0.0 0.0 0.00 0.00 0.00 90 1012.0
20260504080541 51 0 0.0 0.0 0.00 0.00 0.00 90 1011.8
20260504080110 51 0 0.0 0.0 0.00 0.00 0.00 90 1011.9
20260504050541 59 0 0.0 1.0 0.00 0.00 0.00 83 1011.2
20260504045540 60 0 0.0 2.0 0.00 0.00 0.00 82 1011.1
20260504045040 60 0 0.0 1.0 0.00 0.00 0.00 82 1011.1
20260504044551 61 0 0.0 1.0 0.00 0.00 0.00 81 1011.0
20260504044040 61 13 0.0 0.0 0.00 0.00 0.00 81 1011.1
20260504043541 62 0 0.0 1.0 0.00 0.00 0.00 80 1011.0
20260504043103 62 0 0.0 1.0 0.00 0.00 0.00 79 1011.0
20260504042540 63 0 0.0 0.0 0.00 0.00 0.00 78 1010.9
20260504042041 63 0 0.0 1.0 0.00 0.00 0.00 76 1010.8
20260504041550 64 0 0.0 1.0 0.00 0.00 0.00 75 1010.8
20260504041041 64 0 0.0 1.0 0.00 0.00 0.00 75 1010.7
20260504040544 65 14 0.0 1.0 0.00 0.00 0.00 74 1010.7
20260504040114 65 0 0.0 1.0 0.00 0.00 0.00 73 1010.6
20260504035540 66 0 0.0 1.0 0.00 0.00 0.00 71 1010.6
20260504035039 67 14 0.0 0.0 0.00 0.00 0.00 71 1010.4
20260504034549 67 0 0.0 1.0 0.00 0.00 0.00 69 1010.4
20260504034040 68 0 0.0 1.0 0.00 0.00 0.00 68 1010.4
20260504033540 69 0 0.0 0.0 0.00 0.00 0.00 67 1010.4
20260504033048 69 0 0.0 0.0 0.00 0.00 0.00 67 1010.2
20260504032541 70 0 0.0 0.0 0.00 0.00 0.00 65 1010.2
20260504032040 71 0 0.0 0.0 0.00 0.00 0.00 63 1010.2
20260504031553 72 0 0.0 1.0 0.00 0.00 0.00 63 1010.2
20260504031040 73 0 0.0 1.0 0.00 0.00 0.00 62 1010.1
20260504030540 74 0 0.0 2.0 0.00 0.00 0.00 59 1010.1
20260504030051 75 0 0.0 2.0 0.00 0.00 0.00 57 1010.1
20260504025540 76 0 0.0 3.0 0.00 0.00 0.00 56 1010.0
20260504025045 77 15 0.0 3.0 0.00 0.00 0.00 53 1010.0
20260504024551 78 5 0.0 2.0 0.00 0.00 0.00 51 1010.0
20260504024041 78 0 0.0 2.0 0.00 0.00 0.00 49 1009.9
20260504023541 79 0 0.0 1.0 0.00 0.00 0.00 46 1009.9
20260504023057 80 0 0.0 2.0 0.00 0.00 0.00 44 1009.9
20260504022542 81 0 0.0 6.0 0.00 0.00 0.00 43 1009.9
20260504022040 81 0 1.0 6.0 0.00 0.00 0.00 40 1009.8
20260504021551 81 25 0.0 3.0 0.00 0.00 0.00 38 1009.8
20260504021039 82 0 0.0 4.0 0.00 0.00 0.00 37 1009.7
20260504020540 82 34 1.0 4.0 0.00 0.00 0.00 37 1009.8
20260504020050 82 0 1.0 6.0 0.00 0.00 0.00 36 1009.7
20260504015540 82 67 2.0 6.0 0.00 0.00 0.00 35 1009.8
20260504015042 83 346 1.0 4.0 0.00 0.00 0.00 40 1009.8
20260504014601 83 0 0.0 5.0 0.00 0.00 0.00 39 1009.9
20260504014041 83 37 2.0 5.0 0.00 0.00 0.00 38 1009.9
20260504013541 83 214 2.0 5.0 0.00 0.00 0.00 37 1009.8
20260504013048 83 49 0.0 6.0 0.00 0.00 0.00 38 1009.9
20260504012540 83 67 1.0 6.0 0.00 0.00 0.00 39 1009.9
20260504012040 84 197 0.0 3.0 0.00 0.00 0.00 38 1009.9
20260504011546 84 5 0.0 3.0 0.00 0.00 0.00 38 1009.8
20260504011039 84 236 0.0 6.0 0.00 0.00 0.00 35 1009.9
20260504010540 85 325 0.0 6.0 0.00 0.00 0.00 34 1009.9
20260504010054 85 80 1.0 6.0 0.00 0.00 0.00 34 1009.9
20260504005544 86 127 1.0 6.0 0.00 0.00 0.00 35 1010.0
20260504005040 87 187 1.0 4.0 0.00 0.00 0.00 31 1009.9
20260504004553 87 0 1.0 4.0 0.00 0.00 0.00 32 1009.9